Home > Weather > Nikšić > Past weeks

Flag for Montenegro Weather for the Past 2 Weeks in Nikšić, Montenegro

Now
50 °F

Rain. Overcast.


Feels Like: 49 °F
Forecast: 42 / 58 °F
Wind: 3 mph from South

Location: Niksic

Current Time: May 1, 2016 at 1:56:44 PM

Latest Report: May 1, 2016 at 1:00 PM


Visibility: 3 mi

Pressure: 29.98 "Hg (27.77 "Hg at 635m altitude)

Humidity: 99%

Dew Point: 50 °F

Location of NikšićLocation

Historic Weather in Nikšić — Graph

°F

Nikšić Temperature Yesterday

Maximum temperature yesterday: 65 °F (at 2:00 PM)
Minimum temperature yesterday: 50 °F (at 11:00 PM)
Average temperature yesterday: 60 °F

High & Low Weather Summary for the Past Weeks

 TemperatureHumidityPressure
High73 °F (Apr 18, 2:00 PM)100% (Apr 23, 2:00 PM)30.32 "Hg (Apr 23, 2:00 PM)
Low34 °F (Apr 25, 5:00 PM)15% (Apr 21, 2:00 PM)29.50 "Hg (Apr 24, 12:00 PM)
Average54 °F66%29.94 "Hg
* Reported Apr 16 12:00 Noon — May 1 12:00 Noon, Nikšić, Weather by CustomWeather, © 2016

Note: Actual official high and low records may vary slightly from our data, if they occured in-between our weather recording intervals... More about our weather records

Advertising

Nikšić Weather History for the Previous 24 Hours

Scroll right to see more
 ConditionsComfort  
Time TempWeatherWind HumidityBarometerVisibility
12:00 PM
Sun, May 1
49 °FLight rain. Overcast.3 mph100%29.99 "Hg11 mi
11:00 AM49 °FLight rain. Overcast.1 mph100%29.99 "Hg12 mi
10:00 AM48 °FOvercast.1 mph99%29.99 "Hg12 mi
9:00 AM47 °FOvercast.2 mph100%29.99 "Hg12 mi
8:00 AM47 °FOvercast.1 mph100%29.97 "Hg12 mi
7:00 AM45 °FOvercast.2 mph100%29.98 "Hg12 mi
6:00 AM44 °FOvercast.1 mph100%29.98 "Hg12 mi
5:00 AM44 °FPassing clouds.1 mph99%29.99 "Hg12 mi
11:00 PM
Sat, Apr 30
50 °FClear.2 mph99%30.01 "Hg12 mi
10:00 PM52 °FPassing clouds.2 mph100%30.01 "Hg12 mi
9:00 PM55 °FPassing clouds.1 mph86%30.00 "Hg12 mi
8:00 PM58 °FPassing clouds.2 mph72%29.97 "Hg12 mi
7:00 PM61 °FPartly sunny.3 mph64%29.95 "Hg12 mi
6:00 PM62 °FPartly sunny.6 mph64%29.95 "Hg12 mi
5:00 PM64 °FPartly sunny.6 mph62%29.93 "Hg12 mi
4:00 PM64 °FPartly sunny.6 mph68%29.93 "Hg12 mi
2:00 PM65 °FPartly sunny.6 mph59%29.95 "Hg12 mi
1:00 PM65 °FScattered clouds.3 mph51%29.96 "Hg12 mi
Weather by CustomWeather, © 2016

See weather overviewHow to use our weather pages